CW3860 Weather Reports


time (UTC)temp
F
wind
direction
speed
knots
gust
knots
rain 1hr
in
rain 24hr
in
rain mn
in
humidity
%
barometer
mb
20260504002530 60 205 0.0 0.9 0.00 0.00 0.00 66 1017.1
20260504002030 60 205 0.0 0.9 0.00 0.00 0.00 66 1017.1
20260504001529 60 205 0.0 0.0 0.00 0.00 0.00 66 1017.1
20260504001029 60 205 0.0 1.7 0.00 0.00 0.00 66 1017.1
20260504000532 60 201 0.0 0.0 0.00 0.00 0.00 65 1017.0
20260504000030 60 202 0.0 0.0 0.00 0.00 0.00 65 1017.1
20260503235529 60 202 0.0 0.9 0.00 0.00 0.00 65 1017.2
20260503235029 61 133 0.0 0.0 0.00 0.00 0.00 65 1017.2
20260503234530 61 132 0.0 0.9 0.00 0.00 0.00 65 1017.2
20260503234029 60 107 0.0 1.7 0.00 0.00 0.00 65 1017.2
20260503233530 60 117 0.9 1.7 0.00 0.00 0.00 65 1017.2
20260503233029 60 231 0.9 0.9 0.00 0.00 0.00 65 1017.2
20260503232532 60 231 0.0 0.9 0.00 0.00 0.00 65 1017.2
20260503232029 60 230 0.0 0.0 0.00 0.00 0.00 66 1017.2
20260503231530 60 230 0.0 0.9 0.00 0.00 0.00 66 1017.2
20260503231029 60 231 0.0 0.9 0.00 0.00 0.00 66 1017.1
20260503230529 60 231 0.0 0.9 0.00 0.00 0.00 66 1017.1
20260503230029 60 230 0.0 0.9 0.00 0.00 0.00 66 1017.1
20260503225529 60 231 0.9 0.9 0.00 0.00 0.00 66 1017.2
20260503225029 60 231 0.0 0.9 0.00 0.00 0.00 66 1017.2
20260503224530 60 231 0.0 0.9 0.00 0.00 0.00 67 1017.3
20260503224029 60 230 0.0 0.9 0.00 0.00 0.00 66 1017.3
20260503223529 60 231 0.0 0.9 0.00 0.00 0.00 66 1017.3
20260503223029 60 231 0.9 0.9 0.00 0.00 0.00 65 1017.3
20260503222529 60 230 0.0 0.9 0.00 0.00 0.00 65 1017.3
20260503222029 60 231 0.0 0.9 0.00 0.00 0.00 65 1017.3
20260503221529 60 178 0.0 0.9 0.00 0.00 0.00 66 1017.2
20260503221029 60 178 0.0 1.7 0.00 0.00 0.00 66 1017.3
20260503220529 60 213 0.9 1.7 0.00 0.00 0.00 66 1017.2
20260503220029 60 309 0.9 0.9 0.00 0.00 0.00 66 1017.2
20260503215530 60 308 0.0 0.9 0.00 0.00 0.00 65 1017.2
20260503215029 61 309 0.0 0.9 0.00 0.00 0.00 65 1017.2
20260503214530 61 309 0.0 0.9 0.00 0.00 0.00 64 1017.2
20260503214032 61 309 0.9 0.9 0.00 0.00 0.00 63 1017.2
20260503213530 61 309 0.9 0.9 0.00 0.00 0.00 63 1017.1
20260503213030 61 309 0.0 1.7 0.00 0.00 0.00 63 1017.2
20260503212530 61 306 0.9 1.7 0.00 0.00 0.00 61 1017.2
20260503212030 61 267 0.0 0.9 0.00 0.00 0.00 61 1017.2
20260503211529 61 226 0.0 0.9 0.00 0.00 0.00 60 1017.2
20260503211030 61 225 0.0 0.0 0.00 0.00 0.00 61 1017.1
20260503210530 61 225 0.0 0.9 0.00 0.00 0.00 60 1017.1
20260503210032 61 225 0.0 1.7 0.00 0.00 0.00 60 1017.2
20260503205529 61 302 0.0 0.0 0.00 0.00 0.00 61 1017.2
20260503205029 62 302 0.0 0.0 0.00 0.00 0.00 60 1017.2
20260503204529 62 302 0.0 0.9 0.00 0.00 0.00 59 1017.2
20260503204029 62 290 0.9 0.9 0.00 0.00 0.00 58 1017.2
20260503203529 63 290 0.0 0.9 0.00 0.00 0.00 57 1017.1
20260503203030 63 290 0.0 0.9 0.00 0.00 0.00 57 1017.1
20260503202532 63 290 0.0 0.9 0.00 0.00 0.00 57 1017.2
20260503202029 63 290 0.0 0.9 0.00 0.00 0.00 56 1017.2
20260503201530 63 290 0.0 0.9 0.00 0.00 0.00 57 1017.1
20260503201029 63 290 0.0 0.9 0.00 0.00 0.00 57 1017.2
20260503200530 63 290 0.0 0.9 0.00 0.00 0.00 56 1017.2
20260503200029 63 290 0.0 0.9 0.00 0.00 0.00 57 1017.2
20260503195530 64 290 0.0 0.9 0.00 0.00 0.00 56 1017.2
20260503195030 64 290 0.0 0.9 0.00 0.00 0.00 56 1017.2
20260503194529 64 290 0.0 0.9 0.00 0.00 0.00 55 1017.2
20260503194030 64 290 0.0 0.9 0.00 0.00 0.00 55 1017.2
20260503193533 64 290 0.0 0.9 0.00 0.00 0.00 54 1017.2
20260503193030 65 290 0.0 0.9 0.00 0.00 0.00 54 1017.2
20260503192530 65 290 0.0 0.9 0.00 0.00 0.00 53 1017.2
20260503192030 65 290 0.0 0.0 0.00 0.00 0.00 53 1017.2
20260503191533 65 290 0.0 0.9 0.00 0.00 0.00 54 1017.1
20260503191033 65 290 0.0 0.0 0.00 0.00 0.00 54 1017.2
20260503190530 65 290 0.0 0.0 0.00 0.00 0.00 54 1017.1
20260503190030 66 290 0.0 0.9 0.00 0.00 0.00 54 1017.1
20260503185530 66 290 0.0 0.9 0.00 0.00 0.00 54 1017.1
20260503185033 66 292 0.0 1.7 0.00 0.00 0.00 53 1017.0
20260503184530 66 202 0.0 0.0 0.00 0.00 0.00 51 1017.0
20260503184030 66 202 0.0 0.9 0.00 0.00 0.00 52 1017.0
20260503183530 67 202 0.0 0.0 0.00 0.00 0.00 52 1017.0
20260503183030 67 202 0.0 0.9 0.00 0.00 0.00 56 1016.9
20260503182530 67 202 0.0 0.0 0.00 0.00 0.00 55 1016.9
20260503182030 67 202 0.0 0.9 0.00 0.00 0.00 55 1016.9
20260503181530 67 202 0.0 1.7 0.00 0.00 0.00 55 1016.9
20260503181031 67 197 0.9 2.6 0.00 0.00 0.00 54 1016.8
20260503180530 67 135 0.0 2.6 0.00 0.00 0.00 55 1016.8
20260503180034 68 160 0.9 1.7 0.00 0.00 0.00 57 1016.8
20260503175530 68 196 0.0 0.9 0.00 0.00 0.00 59 1016.8
20260503175030 68 196 0.9 1.7 0.00 0.00 0.00 58 1016.8
20260503174533 68 186 0.9 2.6 0.00 0.00 0.00 58 1016.7
20260503174030 68 190 1.7 3.5 0.00 0.00 0.00 58 1016.8
20260503173530 68 171 0.9 4.3 0.00 0.00 0.00 57 1016.8
20260503173030 68 203 2.6 3.5 0.00 0.00 0.00 62 1016.9
20260503172531 68 156 0.9 4.3 0.00 0.00 0.00 64 1016.9
20260503172033 68 88 1.7 3.5 0.00 0.00 0.00 64 1016.9
20260503171530 68 174 2.6 3.5 0.00 0.00 0.00 62 1017.0
20260503171030 68 123 2.6 4.3 0.00 0.00 0.00 60 1016.9
20260503170530 69 121 3.5 5.2 0.00 0.00 0.00 59 1016.9
20260503150531 71 134 1.7 4.3 0.00 0.00 0.00 60 1017.4
20260503131030 71 119 3.5 6.1 0.00 0.00 0.00 61 1018.0
20260503130531 71 92 5.2 6.1 0.00 0.00 0.00 61 1018.1
20260503110534 70 100 2.6 5.2 0.00 0.00 0.00 63 1019.0
20260503081531 70 91 3.5 3.5 0.00 0.00 0.00 59 1019.9
20260503081031 71 85 1.7 4.3 0.00 0.00 0.00 55 1019.8
20260503080535 71 105 4.3 4.3 0.00 0.00 0.00 52 1019.8
20260503072535 69 106 2.6 3.5 0.00 0.00 0.00 51 1019.8
20260503072031 69 99 0.9 3.5 0.00 0.00 0.00 51 1019.8
20260503071532 69 94 1.7 3.5 0.00 0.00 0.00 52 1019.8
20260503071031 69 113 2.6 3.5 0.00 0.00 0.00 49 1019.9
20260503070531 69 97 1.7 3.5 0.00 0.00 0.00 50 1019.8
20260503055032 62 355 0.0 0.9 0.00 0.00 0.00 56 1019.6
20260503054534 61 355 0.0 0.9 0.00 0.00 0.00 58 1019.5
20260503054032 60 355 0.9 1.7 0.00 0.00 0.00 57 1019.5
20260503053532 60 355 0.0 0.9 0.00 0.00 0.00 57 1019.5
20260503053031 60 355 0.0 0.9 0.00 0.00 0.00 57 1019.4
20260503052531 60 355 0.0 1.7 0.00 0.00 0.00 56 1019.5
20260503052031 59 341 1.7 2.6 0.00 0.00 0.00 56 1019.4
20260503051531 59 336 0.9 0.9 0.00 0.00 0.00 57 1019.4
20260503051032 59 336 0.9 1.7 0.00 0.00 0.00 57 1019.5
20260503050532 59 286 0.0 0.9 0.00 0.00 0.00 60 1019.5
20260503050032 58 286 0.0 0.9 0.00 0.00 0.00 59 1019.5
20260503045535 58 279 0.0 0.9 0.00 0.00 0.00 59 1019.5
20260503045032 58 279 0.0 0.9 0.00 0.00 0.00 59 1019.6
20260503044532 58 279 0.0 0.9 0.00 0.00 0.00 58 1019.6
20260503044035 58 279 0.0 1.7 0.00 0.00 0.00 58 1019.6
20260503043535 58 261 0.0 0.9 0.00 0.00 0.00 58 1019.6
20260503043032 58 261 0.0 0.9 0.00 0.00 0.00 57 1019.6
20260503042532 58 305 0.0 2.6 0.00 0.00 0.00 57 1019.5
20260503042032 58 355 0.0 1.7 0.00 0.00 0.00 58 1019.5
20260503041535 57 325 0.0 1.7 0.00 0.00 0.00 58 1019.5
20260503041032 56 333 0.9 2.6 0.00 0.00 0.00 60 1019.5
20260503040532 56 322 0.0 1.7 0.00 0.00 0.00 61 1019.5
20260503040032 55 222 0.0 0.9 0.00 0.00 0.00 62 1019.5
20260503035532 55 213 0.0 0.9 0.00 0.00 0.00 63 1019.5
20260503035032 55 336 0.9 0.9 0.00 0.00 0.00 64 1019.5
20260503034535 55 336 0.0 0.9 0.00 0.00 0.00 63 1019.5
20260503034032 55 336 0.0 1.7 0.00 0.00 0.00 63 1019.5
20260503033533 56 271 0.0 0.9 0.00 0.00 0.00 62 1019.5
20260503033032 56 271 0.9 0.9 0.00 0.00 0.00 61 1019.5
20260503032532 56 344 0.0 1.7 0.00 0.00 0.00 61 1019.5
20260503032032 56 344 0.0 1.7 0.00 0.00 0.00 60 1019.5
20260503031532 56 344 0.0 0.9 0.00 0.00 0.00 60 1019.6
20260503031032 56 344 0.0 1.7 0.00 0.00 0.00 60 1019.5
20260503030532 56 344 0.9 0.9 0.00 0.00 0.00 60 1019.5
20260503030033 57 344 0.0 0.9 0.00 0.00 0.00 60 1019.5
20260503025532 57 344 0.0 0.9 0.00 0.00 0.00 60 1019.4
20260503025032 57 344 0.0 0.9 0.00 0.00 0.00 60 1019.5
20260503024532 57 344 0.0 0.0 0.00 0.00 0.00 60 1019.5
20260503024032 57 344 0.0 0.9 0.00 0.00 0.00 59 1019.5
20260503023532 57 344 0.9 1.7 0.00 0.00 0.00 59 1019.6
20260503023032 57 330 0.0 0.9 0.00 0.00 0.00 59 1019.6
20260503022532 57 330 0.0 1.7 0.00 0.00 0.00 59 1019.6
20260503022032 57 331 0.9 1.7 0.00 0.00 0.00 59 1019.7
20260503021532 57 333 0.9 1.7 0.00 0.00 0.00 60 1019.7
20260503021032 57 333 1.7 1.7 0.00 0.00 0.00 60 1019.8
20260503020528 57 267 0.0 1.7 0.00 0.00 0.00 60 1019.8
20260503020028 57 254 0.9 0.9 0.00 0.00 0.00 60 1019.8
20260503015528 57 254 0.0 0.0 0.00 0.00 0.00 60 1019.8
20260503015029 57 254 0.0 0.0 0.00 0.00 0.00 59 1019.8
20260503014528 57 254 0.0 0.9 0.00 0.00 0.00 59 1019.8
20260503014031 57 257 0.0 0.9 0.00 0.00 0.00 60 1019.9
20260503013531 57 232 0.0 0.9 0.00 0.00 0.00 60 1019.9
20260503013028 57 262 0.0 0.9 0.00 0.00 0.00 61 1020.0
20260503012531 57 229 0.0 0.9 0.00 0.00 0.00 61 1020.0
20260503012031 57 229 0.0 0.9 0.00 0.00 0.00 60 1020.1
20260503011528 58 229 0.0 0.9 0.00 0.00 0.00 59 1020.0
20260503011028 58 229 0.0 0.9 0.00 0.00 0.00 60 1020.1
20260503010528 58 229 0.0 0.9 0.00 0.00 0.00 59 1020.2
20260503010031 57 223 0.0 1.7 0.00 0.00 0.00 59 1020.2
20260503005528 57 282 0.0 0.9 0.00 0.00 0.00 60 1020.2
20260503005028 57 300 0.0 0.9 0.00 0.00 0.00 61 1020.3
20260503004529 57 303 1.7 1.7 0.00 0.00 0.00 61 1020.3
20260503004028 57 223 0.9 1.7 0.00 0.00 0.00 64 1020.4
20260503003532 57 222 0.0 0.9 0.00 0.00 0.00 63 1020.4
20260503003028 58 223 0.0 0.0 0.00 0.00 0.00 63 1020.4